[[{"header":{"parameterUnit":"m.s-1","parameterCategory":2,"la1":30.2991,"la2":30.254,"lo1":-89.0895,"lo2":-89.0444,"dy":0.0017,"dx":0.0017,"nx":28,"ny":28,"refTime":"2025-01-31T09:00:00:Z","depth":"0","parameterNumber":2,"parameterNumberName":"U-component_of_CURRENTS"},"data":[0,0,0,0,0,0,0,0,0,0,0,0,0,0,0,0,0,0,0,0,0,0,0,0,0,0,0,0,0,0,0,0,0,0,0,0,0,0,0,0,0,0,0,0,0,0,0,0,0,0,0,0,0,0,0,0,0,0,0.2067,0.2067,0,0.2043,0.2043,0.2042,0.2024,0.2025,0.2025,0.2025,0.1994,0.1994,0.1993,0,0,0,0,0,0,0,0,0,0,0,0,0,0.2105,0.2104,0.2067,0.2067,0.2067,0.2043,0.2043,0.2042,0.2024,0.2025,0.2025,0.2025,0.1995,0.1994,0.1993,0,0,0,0,0,0,0,0,0,0,0,0,0,0.2083,0.2104,0.2067,0.2057,0.2056,0.2043,0.2043,0.2042,0.2024,0.2025,0.2025,0.2025,0.1995,0.1994,0.1992,0.1981,0,0,0.1988,0.1988,0,0,0,0,0,0,0,0,0.2084,0.2081,0.2059,0.2058,0.2057,0.2039,0.2045,0.2022,0.2024,0.2034,0.2025,0.2025,0.2011,0.2008,0.1999,0.198,0.1979,0.1988,0.1987,0.1987,0.1986,0,0,0,0,0,0,0,0.2086,0.2082,0.2055,0.2059,0.2058,0.2057,0.2054,0.2041,0.2019,0.2033,0.2032,0.2034,0.201,0.2001,0.1998,0.1978,0.1988,0.1987,0.1986,0.1986,0.1972,0.1972,0,0,0,0,0,0,0.2093,0.2083,0.2055,0.2054,0.2074,0.2056,0.2053,0.2043,0.2019,0.2017,0.2034,0.2033,0.2003,0.2,0.1997,0.2003,0.1987,0.1986,0.1985,0.1971,0.1972,0.1972,0,0,0,0,0,0,0.2094,0.2091,0.2056,0.2071,0.2067,0.2056,0.2045,0.2042,0.2035,0.2021,0.2018,0.203,0.2003,0.1999,0.1996,0.2001,0.1985,0.1984,0.1971,0.1971,0.1972,0.2002,0,0,0,0,0,0,0.2095,0.2091,0.2085,0.2071,0.2067,0.2049,0.2045,0.2042,0.2037,0.2036,0.2017,0.2014,0.2003,0.1998,0.1995,0.1999,0.1983,0.197,0.1971,0.1972,0.2,0.2003,0.2006,0,0,0,0,0,0.2096,0.2092,0.2084,0.2081,0.2059,0.205,0.2047,0.2038,0.2037,0.2032,0.2028,0.2015,0.2001,0.1997,0.1993,0.1997,0.197,0.1971,0.1972,0.1999,0.2003,0.2006,0,0,0,0,0,0,0.2102,0.209,0.2081,0.2072,0.2061,0.2048,0.2045,0.204,0.2031,0.2032,0.2019,0.2015,0.2016,0.2003,0.1999,0.1996,0.1983,0.1983,0.2005,0.2009,0.2012,0.2017,0.1982,0,0,0,0,0,0.2101,0.2097,0.2082,0.2075,0.207,0.2057,0.2052,0.2047,0.2039,0.2035,0.202,0.2012,0.2015,0.201,0.2003,0.1997,0.1995,0.1998,0.2001,0.2004,0.2006,0.2018,0.2022,0.1975,0.1975,0.1975,0,0,0.2102,0.2096,0.2092,0.2076,0.2067,0.2058,0.2054,0.2049,0.2042,0.2034,0.2018,0.202,0.2017,0.2017,0.2015,0.2006,0.2015,0.2005,0.2007,0.2008,0.2019,0.2024,0.2028,0.1976,0.1976,0.1976,0,0,0.2099,0.2093,0.2084,0.2078,0.2068,0.2063,0.2063,0.2046,0.204,0.2033,0.2032,0.2041,0.2024,0.2029,0.2032,0.2045,0.2033,0.204,0.2055,0.2067,0.2071,0.2074,0.2076,0.2079,0.2038,0.2038,0.2038,0,0.2101,0.2081,0.2081,0.207,0.2067,0.2067,0.2055,0.2051,0.2034,0.2036,0.2031,0.2039,0.2033,0.2053,0.206,0.2052,0.2053,0.2043,0.2071,0.2075,0.2078,0.2078,0.2082,0.204,0.204,0.204,0.2039,0,0.208,0.2072,0.2069,0.2056,0.2054,0.2048,0.2044,0.2038,0.2037,0.204,0.2054,0.2057,0.2063,0.2066,0.2067,0.209,0.2082,0.2077,0.2063,0.2084,0.2083,0.2087,0.2042,0.2042,0.2041,0.2041,0,0,0.2066,0.2056,0.2052,0.2046,0.2046,0.204,0.204,0.204,0.2046,0.2048,0.2061,0.2078,0.209,0.2094,0.21,0.2114,0.2137,0.2105,0.2105,0.2108,0.2158,0.2039,0.203,0.2139,0.2139,0.214,0.2148,0,0.2046,0.2026,0.2027,0.2015,0.2007,0.2015,0.2019,0.2027,0.2037,0.205,0.2079,0.2095,0.2099,0.2108,0.2126,0.2141,0.2147,0.2135,0.2136,0.2136,0.2028,0.203,0.1886,0.1871,0.2151,0.2151,0.2152,0,0.2018,0.2011,0.1994,0.1998,0.1995,0.1992,0.2002,0.2006,0.204,0.2049,0.2083,0.2106,0.2142,0.2134,0.2171,0.2165,0.216,0.2167,0.2167,0.2046,0.2021,0.1895,0.1866,0.177,0.2156,0.2156,0.2156,0,0.2001,0.1987,0.1975,0.1974,0.1981,0.1976,0.1981,0.2007,0.2016,0.2054,0.2069,0.2119,0.214,0.2162,0.217,0.2176,0.2198,0.2205,0.2092,0.2084,0.1955,0.1933,0.183,0.2215,0.2215,0.2215,0.2215,0,0.1981,0.197,0.1965,0.1958,0.1947,0.1965,0.1966,0.1975,0.201,0.2023,0.2071,0.2087,0.2148,0.2166,0.2176,0.2133,0.2199,0.2089,0.2075,0.1958,0.1938,0.1842,0.1803,0.2215,0.2215,0.2215,0.2215,0,0.1965,0.1962,0.1947,0.1944,0.1939,0.1934,0.1941,0.1945,0.1983,0.1999,0.2013,0.2073,0.2082,0.2115,0.2144,0.2116,0.1999,0.2064,0.1914,0.1879,0.1663,0.163,0.1447,0.1435,0.1945,0.1942,0.194,0,0.195,0.1946,0.1928,0.1913,0.1906,0.19,0.1894,0.1923,0.1929,0.1977,0.1982,0.2008,0.1993,0.1988,0.1939,0.1905,0.1869,0.1755,0.1728,0.1614,0.1571,0.151,0.1513,0.1582,0.1576,0.1572,0.1569,0,0.1928,0.1926,0.1908,0.1879,0.1859,0.1844,0.1839,0.1842,0.1877,0.1885,0.1886,0.188,0.1838,0.1723,0.1667,0.1647,0.16,0.1662,0.1591,0.13,0.1182,0.1175,0.162,0.153,0.1534,0.1537,0.1539,0.1541,0.1906,0.1882,0.1858,0.1825,0.1807,0.1781,0.1752,0.175,0.1743,0.1712,0.1763,0.1666,0.1531,0.1417,0.1392,0.1206,0.1296,0.1144,0.1126,0.1086,0.1015,0.1356,0.1216,0.1217,0.1219,0.1221,0.1222,0,0.186,0.1832,0.1802,0.175,0.1715,0.1726,0.1703,0.1658,0.161,0.1544,0.1504,0.1262,0.1106,0.0999,0.0777,0.0679,0.0702,0.0656,0.0562,0.0612,0.0945,0.087,0.0588,0.0589,0.0589,0.0589,0.0589,0.0589,0.1827,0.1777,0.1752,0.1669,0.1641,0.1567,0.1545,0.1479,0.1407,0.1196,0.1003,0.0905,0.0682,0.0364,0.0194,0.0227,0.0228,0.0128,0.0239,0.047,0.0516,0.056,0.0481,0.0122,0.0121,-0.0125,-0.0127,-0.0129]},{"header":{"parameterUnit":"m.s-1","parameterCategory":2,"la1":30.2991,"la2":30.254,"lo1":-89.0895,"lo2":-89.0444,"dy":0.0017,"dx":0.0017,"nx":28,"ny":28,"refTime":"2025-01-31T09:00:00:Z","depth":"0","parameterNumber":3,"parameterNumberName":"V-component_of_CURRENTS"},"data":[0,0,0,0,0,0,0,0,0,0,0,0,0,0,0,0,0,0,0,0,0,0,0,0,0,0,0,0,0,0,0,0,0,0,0,0,0,0,0,0,0,0,0,0,0,0,0,0,0,0,0,0,0,0,0,0,0,0,0.0324,0.0324,0,0.0345,0.0346,0.0346,0.0342,0.0341,0.0341,0.0341,0.0344,0.0344,0.0345,0,0,0,0,0,0,0,0,0,0,0,0,0,0.0291,0.0292,0.0324,0.0324,0.0325,0.0345,0.0346,0.0346,0.0342,0.0341,0.0341,0.034,0.0344,0.0344,0.0345,0,0,0,0,0,0,0,0,0,0,0,0,0,0.0309,0.0292,0.0324,0.0325,0.0325,0.0345,0.0346,0.0346,0.0342,0.0341,0.0341,0.034,0.0344,0.0344,0.0345,0.0362,0,0,0.0347,0.0347,0,0,0,0,0,0,0,0,0.0308,0.031,0.0324,0.0325,0.0325,0.034,0.0335,0.035,0.0342,0.0336,0.0341,0.034,0.0341,0.0342,0.0348,0.0362,0.0362,0.0347,0.0348,0.0348,0.0348,0,0,0,0,0,0,0,0.0307,0.0309,0.0333,0.0325,0.0325,0.0328,0.0329,0.0338,0.0342,0.0337,0.0336,0.0338,0.0341,0.0348,0.0348,0.0362,0.0347,0.0348,0.0348,0.0349,0.0379,0.038,0,0,0,0,0,0,0.0303,0.0308,0.0332,0.0334,0.0314,0.0329,0.0331,0.0336,0.0342,0.0343,0.0339,0.0338,0.0347,0.0347,0.0348,0.0369,0.0348,0.0349,0.0349,0.0379,0.0379,0.038,0,0,0,0,0,0,0.0303,0.0305,0.0331,0.0321,0.0324,0.033,0.0336,0.0337,0.0342,0.0344,0.0344,0.0342,0.0346,0.0347,0.0358,0.0369,0.0349,0.035,0.0379,0.0379,0.038,0.041,0,0,0,0,0,0,0.0302,0.0305,0.0309,0.0321,0.0325,0.0344,0.0337,0.0338,0.0344,0.0343,0.0347,0.0347,0.0346,0.0357,0.0359,0.0369,0.035,0.0378,0.0379,0.038,0.0408,0.0411,0.0414,0,0,0,0,0,0.0301,0.031,0.0309,0.0312,0.033,0.0345,0.0347,0.0349,0.0345,0.0351,0.0354,0.0347,0.0363,0.0359,0.036,0.0371,0.0378,0.0379,0.0379,0.0407,0.0411,0.0414,0,0,0,0,0,0,0.0297,0.0311,0.031,0.0323,0.0332,0.0344,0.0352,0.0352,0.036,0.0358,0.0356,0.0357,0.037,0.0366,0.0362,0.0381,0.0367,0.0369,0.0388,0.0391,0.0394,0.0408,0.0351,0,0,0,0,0,0.0298,0.031,0.0321,0.0331,0.0337,0.0345,0.0351,0.0352,0.036,0.0363,0.0366,0.0369,0.0376,0.038,0.0385,0.0399,0.04,0.0405,0.0408,0.041,0.0423,0.0432,0.0437,0.0383,0.0383,0.0383,0,0,0.0298,0.0309,0.0314,0.0331,0.034,0.0359,0.0348,0.036,0.0373,0.0363,0.0383,0.0381,0.0382,0.0397,0.0402,0.0395,0.0425,0.0412,0.0414,0.0425,0.0434,0.0439,0.0444,0.0383,0.0383,0.0383,0,0,0.0311,0.0316,0.0333,0.0344,0.0359,0.0367,0.0371,0.0384,0.0387,0.0404,0.0399,0.0406,0.0417,0.0423,0.0426,0.0448,0.0439,0.0442,0.0471,0.0479,0.0484,0.0488,0.0492,0.0496,0.0444,0.0444,0.0444,0,0.031,0.0334,0.0339,0.0359,0.0374,0.0373,0.0396,0.0403,0.0416,0.0428,0.0413,0.0439,0.0433,0.046,0.0462,0.0456,0.0456,0.0458,0.0484,0.0488,0.0492,0.0494,0.0499,0.0445,0.0445,0.0445,0.0445,0,0.0338,0.0357,0.0369,0.0398,0.0412,0.0432,0.0443,0.0454,0.0457,0.0468,0.049,0.0484,0.0502,0.0494,0.0485,0.051,0.0499,0.0486,0.0477,0.0499,0.05,0.0504,0.0448,0.0447,0.0447,0.0446,0,0,0.0341,0.0381,0.0386,0.0409,0.0435,0.0454,0.0477,0.0507,0.0534,0.0533,0.0569,0.0568,0.0565,0.0568,0.0554,0.0556,0.0573,0.0533,0.0532,0.054,0.0589,0.058,0.0583,0.0562,0.0563,0.0564,0.0577,0,0.0363,0.041,0.0424,0.047,0.0498,0.0509,0.0537,0.0561,0.0577,0.0609,0.0602,0.0629,0.0592,0.0601,0.0598,0.0586,0.0586,0.057,0.0564,0.0564,0.0556,0.0588,0.063,0.0646,0.0581,0.0582,0.0582,0,0.0388,0.0419,0.0467,0.0519,0.0533,0.0558,0.0611,0.0635,0.0673,0.0685,0.0704,0.0703,0.0714,0.0672,0.0667,0.0658,0.0628,0.0609,0.0609,0.0596,0.0563,0.0613,0.0655,0.0693,0.0588,0.0588,0.0587,0,0.0399,0.0452,0.0493,0.051,0.0565,0.0589,0.0618,0.0662,0.0697,0.0738,0.077,0.0776,0.079,0.0758,0.0713,0.0695,0.0701,0.067,0.0634,0.0632,0.0666,0.0666,0.075,0.0665,0.0665,0.0665,0.0665,0,0.0423,0.0456,0.0502,0.0527,0.0582,0.0611,0.0673,0.07,0.0754,0.0814,0.0812,0.0856,0.0812,0.0807,0.0748,0.0712,0.0729,0.0654,0.0643,0.0676,0.0677,0.0708,0.0729,0.0665,0.0665,0.0665,0.0665,0,0.043,0.0458,0.051,0.0569,0.0589,0.0629,0.0702,0.075,0.0796,0.0873,0.0891,0.0926,0.0926,0.0872,0.083,0.077,0.0761,0.07,0.0739,0.0732,0.0726,0.0746,0.0847,0.0878,0.0674,0.0674,0.0674,0,0.0439,0.0467,0.0534,0.0566,0.0594,0.0655,0.0701,0.0761,0.0819,0.0921,0.0963,0.0992,0.1023,0.096,0.087,0.0784,0.079,0.0748,0.0718,0.0751,0.0765,0.08,0.0822,0.0774,0.0774,0.0775,0.0775,0,0.0459,0.048,0.0522,0.0585,0.0636,0.0701,0.0773,0.0826,0.0912,0.0987,0.1084,0.1119,0.1081,0.1038,0.0917,0.0847,0.0825,0.0757,0.0795,0.0862,0.0907,0.0923,0.0732,0.0781,0.0781,0.078,0.078,0.078,0.0469,0.0498,0.0548,0.0609,0.0668,0.0744,0.0803,0.0893,0.0995,0.1118,0.1151,0.1207,0.1175,0.1032,0.0956,0.0872,0.0873,0.0843,0.0867,0.0901,0.0937,0.0753,0.0781,0.0781,0.078,0.078,0.078,0,0.0481,0.0513,0.0569,0.0642,0.0704,0.0738,0.085,0.0923,0.1047,0.1146,0.123,0.1252,0.122,0.1135,0.1047,0.1003,0.0998,0.0982,0.106,0.1075,0.0917,0.0926,0.0984,0.0984,0.0984,0.0984,0.0984,0.0984,0.0486,0.0529,0.0558,0.0654,0.071,0.0802,0.0868,0.0983,0.107,0.1195,0.1234,0.1249,0.1243,0.1266,0.1212,0.1165,0.1205,0.1191,0.1195,0.1095,0.1084,0.1074,0.1087,0.1178,0.1179,0.1376,0.1378,0.1379]}],[{"header":{"parameterUnit":"m.s-1","parameterCategory":2,"la1":30.2991,"la2":30.254,"lo1":-89.0895,"lo2":-89.0444,"dy":0.0017,"dx":0.0017,"nx":28,"ny":28,"refTime":"2025-01-31T09:00:00:Z","depth":"2","parameterNumber":2,"parameterNumberName":"U-component_of_CURRENTS"},"data":[0,0,0,0,0,0,0,0,0,0,0,0,0,0,0,0,0,0,0,0,0,0,0,0,0,0,0,0,0,0,0,0,0,0,0,0,0,0,0,0,0,0,0,0,0,0,0,0,0,0,0,0,0,0,0,0,0,0,0.138,0.138,0,0.1385,0.1385,0.1385,0.1379,0.1379,0.1379,0.1379,0.1364,0.1364,0.1363,0,0,0,0,0,0,0,0,0,0,0,0,0,0.1403,0.1402,0.138,0.138,0.138,0.1385,0.1385,0.1385,0.1379,0.1379,0.1379,0.1379,0.1364,0.1364,0.1363,0,0,0,0,0,0,0,0,0,0,0,0,0,0.1398,0.1402,0.138,0.1379,0.1379,0.1385,0.1385,0.1385,0.1379,0.1379,0.1379,0.1379,0.1364,0.1364,0.1363,0.1363,0,0,0.1362,0.1362,0,0,0,0,0,0,0,0,0.1398,0.1396,0.1379,0.1379,0.1379,0.1383,0.1388,0.1377,0.1379,0.1377,0.1379,0.1379,0.137,0.1369,0.1368,0.1362,0.1362,0.1362,0.1362,0.1361,0.1361,0,0,0,0,0,0,0,0.1398,0.1397,0.138,0.1379,0.138,0.1392,0.139,0.1386,0.1372,0.1377,0.1377,0.1381,0.1369,0.1368,0.1368,0.1361,0.1362,0.1361,0.1361,0.1361,0.1378,0.1379,0,0,0,0,0,0,0.1399,0.1397,0.138,0.1381,0.139,0.1391,0.139,0.138,0.1373,0.1372,0.1381,0.138,0.1369,0.1368,0.1367,0.1384,0.1361,0.1361,0.1361,0.1378,0.1379,0.1379,0,0,0,0,0,0,0.1399,0.1397,0.138,0.1391,0.139,0.1391,0.1381,0.1381,0.1387,0.1376,0.1375,0.1388,0.1369,0.1368,0.1371,0.1382,0.1361,0.136,0.1377,0.1378,0.1379,0.1406,0,0,0,0,0,0,0.1399,0.1396,0.1394,0.1391,0.1389,0.1385,0.1381,0.1381,0.1389,0.1389,0.1382,0.138,0.1369,0.1372,0.137,0.1381,0.136,0.1376,0.1377,0.1379,0.1404,0.1407,0.1411,0,0,0,0,0,0.14,0.1395,0.1393,0.1392,0.1384,0.1386,0.1386,0.1386,0.139,0.1391,0.1391,0.138,0.138,0.1372,0.137,0.1381,0.1375,0.1377,0.1379,0.1402,0.1407,0.141,0,0,0,0,0,0,0.1405,0.1394,0.1392,0.1384,0.1387,0.1385,0.139,0.1392,0.1394,0.1396,0.1387,0.1385,0.1394,0.1385,0.1377,0.1392,0.1377,0.1379,0.1396,0.14,0.1403,0.1409,0.136,0,0,0,0,0,0.1405,0.1398,0.1394,0.139,0.1391,0.1393,0.1397,0.1397,0.1398,0.1399,0.1397,0.1397,0.1399,0.1397,0.1396,0.1401,0.1401,0.1409,0.1413,0.1416,0.142,0.1439,0.1444,0.1385,0.1385,0.1385,0,0,0.1408,0.1402,0.1398,0.1392,0.1394,0.1393,0.1395,0.1401,0.1404,0.1397,0.1405,0.1409,0.1404,0.1411,0.1414,0.1405,0.1431,0.1418,0.142,0.1423,0.1441,0.1447,0.1452,0.1386,0.1386,0.1386,0,0,0.1408,0.1403,0.1396,0.1396,0.1399,0.1401,0.1405,0.141,0.1414,0.1424,0.1423,0.1439,0.1436,0.144,0.1439,0.1462,0.1451,0.146,0.1479,0.1497,0.1502,0.1506,0.1506,0.1511,0.1459,0.1459,0.1459,0,0.1414,0.1397,0.1398,0.1392,0.1394,0.1405,0.1403,0.141,0.1418,0.1431,0.1429,0.1451,0.1452,0.1464,0.1475,0.1471,0.1471,0.1462,0.1501,0.1506,0.151,0.1509,0.1513,0.1461,0.1461,0.1461,0.146,0,0.1402,0.1395,0.1394,0.1387,0.1392,0.1393,0.1402,0.1416,0.1431,0.1445,0.1471,0.1476,0.1491,0.1495,0.1492,0.1521,0.1508,0.1505,0.149,0.1518,0.1514,0.1519,0.1463,0.1462,0.1462,0.1462,0,0,0.1402,0.1386,0.1389,0.1383,0.1388,0.1391,0.1405,0.1425,0.1444,0.1464,0.1491,0.1508,0.1527,0.1528,0.1529,0.1546,0.1579,0.154,0.1541,0.1539,0.1606,0.1505,0.15,0.1582,0.1583,0.1584,0.159,0,0.1394,0.1377,0.1376,0.1374,0.1367,0.1384,0.1395,0.142,0.1449,0.1482,0.1508,0.1534,0.1532,0.1547,0.1565,0.1582,0.1592,0.1577,0.1582,0.1582,0.1487,0.1502,0.1353,0.1338,0.1593,0.1594,0.1595,0,0.138,0.1372,0.1361,0.1362,0.1363,0.1371,0.1403,0.1417,0.1468,0.149,0.1529,0.1554,0.1593,0.1585,0.162,0.1609,0.1612,0.1617,0.1617,0.1517,0.1488,0.1354,0.1335,0.1601,0.1601,0.16,0.16,0,0.1372,0.1363,0.1356,0.1354,0.1358,0.1371,0.1387,0.1431,0.1446,0.151,0.1532,0.1578,0.1598,0.1624,0.1635,0.1638,0.1659,0.1664,0.1569,0.1562,0.1432,0.141,0.1683,0.1683,0.1683,0.1683,0.1683,0,0.1353,0.1347,0.1354,0.1349,0.1353,0.137,0.1392,0.1416,0.1458,0.1478,0.1541,0.1551,0.161,0.1628,0.1643,0.1606,0.1664,0.1572,0.1558,0.1435,0.1414,0.1642,0.1638,0.1684,0.1684,0.1684,0.1684,0,0.1332,0.1333,0.1322,0.1335,0.1345,0.1352,0.1379,0.1393,0.144,0.1468,0.149,0.154,0.156,0.1592,0.1624,0.1591,0.1588,0.1555,0.1394,0.136,0.148,0.1477,0.1467,0.1464,0.1461,0.1458,0.1456,0,0.1315,0.1314,0.1315,0.1312,0.1318,0.1335,0.1344,0.1381,0.1391,0.1445,0.1447,0.1487,0.148,0.1478,0.1442,0.1427,0.1506,0.1268,0.1246,0.1471,0.1459,0.1461,0.1461,0.109,0.1085,0.1081,0.1078,0,0.1289,0.1294,0.1277,0.1282,0.1286,0.128,0.1298,0.1297,0.1338,0.1349,0.1352,0.136,0.1344,0.1241,0.1206,0.1189,0.1263,0.1183,0.1468,0.1157,0.1113,0.1102,0.1116,0.1042,0.1045,0.1048,0.105,0.1051,0.1263,0.1248,0.124,0.1233,0.1234,0.1216,0.1196,0.1206,0.1194,0.1178,0.122,0.116,0.1145,0.1006,0.0949,0.0903,0.1025,0.0972,0.0986,0.1004,0.0949,0.09,0.0779,0.0781,0.0783,0.0785,0.0786,0,0.1229,0.1211,0.12,0.1165,0.1134,0.1174,0.1151,0.1105,0.1058,0.1036,0.1008,0.086,0.075,0.0749,0.0605,0.058,0.06,0.0556,0.0575,0.061,0.0641,0.057,0.0298,0.0297,0.0296,0.0294,0,0,0.1202,0.1161,0.1147,0.1071,0.1065,0.1017,0.0994,0.0932,0.0883,0.0788,0.0718,0.0725,0.0715,0.0506,0.0459,0.0351,0.0488,0.0326,0.0715,0.0774,0.0804,0.0874,0.0801,0,0,0,0,0]},{"header":{"parameterUnit":"m.s-1","parameterCategory":2,"la1":30.2991,"la2":30.254,"lo1":-89.0895,"lo2":-89.0444,"dy":0.0017,"dx":0.0017,"nx":28,"ny":28,"refTime":"2025-01-31T09:00:00:Z","depth":"2","parameterNumber":3,"parameterNumberName":"V-component_of_CURRENTS"},"data":[0,0,0,0,0,0,0,0,0,0,0,0,0,0,0,0,0,0,0,0,0,0,0,0,0,0,0,0,0,0,0,0,0,0,0,0,0,0,0,0,0,0,0,0,0,0,0,0,0,0,0,0,0,0,0,0,0,0,0.0234,0.0235,0,0.0258,0.0258,0.0259,0.0262,0.0262,0.0261,0.0261,0.0267,0.0268,0.0268,0,0,0,0,0,0,0,0,0,0,0,0,0,0.0197,0.0198,0.0234,0.0235,0.0235,0.0258,0.0258,0.0259,0.0262,0.0262,0.0261,0.0261,0.0267,0.0268,0.0268,0,0,0,0,0,0,0,0,0,0,0,0,0,0.0217,0.0198,0.0234,0.0239,0.024,0.0258,0.0258,0.0259,0.0262,0.0262,0.0261,0.0261,0.0267,0.0268,0.0268,0.0279,0,0,0.027,0.027,0,0,0,0,0,0,0,0,0.0216,0.0218,0.0238,0.0239,0.0239,0.0256,0.0248,0.0265,0.0262,0.0254,0.0261,0.0261,0.0262,0.0263,0.0269,0.028,0.028,0.027,0.027,0.0271,0.0271,0,0,0,0,0,0,0,0.0214,0.0217,0.0244,0.0238,0.0239,0.0242,0.0244,0.0251,0.026,0.0254,0.0255,0.0257,0.0262,0.0268,0.0269,0.028,0.027,0.0271,0.0271,0.0271,0.0292,0.0292,0,0,0,0,0,0,0.0211,0.0216,0.0243,0.0245,0.0226,0.0243,0.0245,0.0252,0.026,0.0261,0.0257,0.0257,0.0268,0.0268,0.0269,0.0284,0.0271,0.0271,0.0272,0.0292,0.0292,0.0292,0,0,0,0,0,0,0.021,0.0213,0.0242,0.023,0.0234,0.0244,0.0251,0.0252,0.0257,0.0262,0.0263,0.026,0.0267,0.0268,0.0277,0.0284,0.0272,0.0272,0.0291,0.0292,0.0292,0.0313,0,0,0,0,0,0,0.0209,0.0213,0.0216,0.023,0.0235,0.0254,0.0251,0.0253,0.0259,0.0259,0.0265,0.0266,0.0267,0.0276,0.0277,0.0285,0.0273,0.0291,0.0291,0.0292,0.0312,0.0314,0.0316,0,0,0,0,0,0.0208,0.0217,0.0216,0.022,0.0239,0.0254,0.0257,0.0263,0.026,0.0265,0.0268,0.0265,0.0279,0.0277,0.0278,0.0286,0.0291,0.0291,0.0292,0.0311,0.0314,0.0316,0,0,0,0,0,0,0.0202,0.0218,0.0218,0.0231,0.0241,0.0255,0.0262,0.0263,0.0271,0.0271,0.0271,0.0272,0.0282,0.028,0.0277,0.0292,0.0283,0.0284,0.0297,0.0299,0.0301,0.031,0.0273,0,0,0,0,0,0.0201,0.0213,0.0225,0.0235,0.0241,0.0251,0.0257,0.0261,0.027,0.0273,0.0277,0.028,0.0286,0.0289,0.0294,0.0304,0.0302,0.0308,0.031,0.0312,0.0319,0.0324,0.0327,0.0293,0.0293,0.0293,0,0,0.02,0.0211,0.0216,0.0234,0.0244,0.026,0.0254,0.0267,0.0278,0.0272,0.0289,0.0288,0.029,0.0301,0.0305,0.0301,0.0318,0.0312,0.0314,0.032,0.0324,0.0328,0.0331,0.0294,0.0294,0.0294,0,0,0.0208,0.0215,0.0229,0.024,0.0256,0.0266,0.0269,0.0283,0.0287,0.0302,0.0299,0.0305,0.0313,0.0319,0.0321,0.0335,0.0327,0.0331,0.0349,0.0353,0.0356,0.0359,0.0353,0.0355,0.0332,0.0332,0.0332,0,0.0205,0.0227,0.0234,0.0253,0.0266,0.0269,0.0288,0.0295,0.0309,0.0319,0.0308,0.0327,0.0325,0.0343,0.0345,0.0341,0.0337,0.0342,0.0357,0.0359,0.0361,0.0355,0.0357,0.0333,0.0333,0.0333,0.0333,0,0.0227,0.0244,0.0254,0.028,0.0294,0.0312,0.0323,0.0335,0.0338,0.0348,0.0363,0.0359,0.0371,0.0366,0.036,0.0375,0.0364,0.0359,0.0353,0.0366,0.0358,0.036,0.0335,0.0334,0.0334,0.0334,0,0,0.0225,0.0262,0.0267,0.0286,0.0312,0.0328,0.0348,0.0374,0.0395,0.0395,0.0419,0.0418,0.0415,0.0417,0.0405,0.0404,0.041,0.0388,0.0388,0.0385,0.0411,0.041,0.0411,0.0406,0.0406,0.0407,0.0396,0,0.0242,0.0281,0.0296,0.0334,0.0358,0.0371,0.0393,0.0413,0.0428,0.0451,0.0443,0.0462,0.0433,0.044,0.0433,0.0423,0.0416,0.0413,0.0397,0.0396,0.0396,0.0414,0.0427,0.042,0.0398,0.0398,0.0398,0,0.0261,0.0288,0.0328,0.0371,0.0383,0.0405,0.0449,0.047,0.0498,0.0508,0.0519,0.0516,0.0518,0.0488,0.0471,0.047,0.0443,0.0425,0.0424,0.042,0.0399,0.0404,0.0424,0.0401,0.0401,0.04,0.04,0,0.0264,0.0311,0.0345,0.036,0.0407,0.0428,0.0454,0.0491,0.052,0.055,0.0575,0.0569,0.0572,0.0543,0.0501,0.0491,0.0477,0.0459,0.043,0.0428,0.0436,0.0435,0.0445,0.0445,0.0445,0.0446,0.0446,0,0.028,0.0308,0.0351,0.0372,0.0418,0.0444,0.0497,0.052,0.0563,0.0611,0.0605,0.0632,0.0587,0.0572,0.0523,0.0485,0.0494,0.0441,0.0432,0.0442,0.0442,0.0423,0.042,0.0445,0.0445,0.0445,0.0445,0,0.0279,0.0306,0.0349,0.0402,0.0421,0.0455,0.0523,0.0563,0.06,0.066,0.0674,0.0683,0.0673,0.062,0.0575,0.0522,0.0482,0.0461,0.047,0.0463,0.0422,0.0421,0.0436,0.0436,0.0436,0.0436,0.0436,0,0.0282,0.0305,0.0367,0.0397,0.0423,0.0478,0.0521,0.0573,0.0622,0.0696,0.0726,0.0735,0.0746,0.0674,0.0599,0.0526,0.0495,0.047,0.0455,0.0434,0.0424,0.0423,0.0422,0.0467,0.0467,0.0467,0.0467,0,0.0289,0.0309,0.0346,0.0408,0.0457,0.0516,0.0582,0.0626,0.0699,0.0752,0.0816,0.0831,0.0783,0.0724,0.062,0.0561,0.0486,0.0472,0.0461,0.0468,0.0463,0.0453,0.0451,0.0469,0.0469,0.0469,0.0469,0.0469,0.0289,0.0315,0.0364,0.0423,0.048,0.055,0.0604,0.0679,0.0759,0.0844,0.086,0.0875,0.0819,0.0691,0.0614,0.0516,0.0517,0.0464,0.0463,0.0462,0.0469,0.0465,0.0471,0.0471,0.0471,0.0471,0.0471,0,0.0293,0.0325,0.0377,0.0448,0.0506,0.0544,0.0643,0.0697,0.0792,0.0858,0.0908,0.0832,0.0785,0.0702,0.0581,0.0511,0.0493,0.0463,0.0466,0.0466,0.0465,0.0471,0.0474,0.0474,0.0473,0.0473,0,0,0.0294,0.0335,0.0364,0.0453,0.0509,0.0597,0.0656,0.0737,0.0799,0.0854,0.0862,0.0882,0.0802,0.0708,0.0627,0.0556,0.0516,0.0525,0.0533,0.0548,0.0548,0.0478,0.0489,0,0,0,0,0]}],[{"header":{"parameterUnit":"m.s-1","parameterCategory":2,"la1":30.2991,"la2":30.254,"lo1":-89.0895,"lo2":-89.0444,"dy":0.0017,"dx":0.0017,"nx":28,"ny":28,"refTime":"2025-01-31T09:00:00:Z","depth":"4","parameterNumber":2,"parameterNumberName":"U-component_of_CURRENTS"},"data":[0,0,0,0,0,0,0,0,0,0,0,0,0,0,0,0,0,0,0,0,0,0,0,0,0,0,0,0,0,0,0,0,0,0,0,0,0,0,0,0,0,0,0,0,0,0,0,0,0,0,0,0,0,0,0,0,0,0,0.0561,0.0561,0,0.0589,0.059,0.059,0.0611,0.0611,0.0611,0.0611,0.0638,0.0639,0.064,0,0,0,0,0,0,0,0,0,0,0,0,0,0.0571,0.0571,0.0561,0.0561,0.0562,0.0589,0.059,0.059,0.0611,0.0611,0.0611,0.0611,0.0638,0.0639,0.064,0,0,0,0,0,0,0,0,0,0,0,0,0,0.0581,0.0571,0.0561,0.0574,0.0575,0.0589,0.059,0.059,0.0611,0.0611,0.0611,0.0611,0.0638,0.0639,0.064,0.0645,0,0,0.0643,0.0643,0,0,0,0,0,0,0,0,0.0581,0.0581,0.0572,0.0573,0.0575,0.0595,0.0603,0.0608,0.0611,0.0599,0.0611,0.0611,0.0623,0.0625,0.0633,0.0647,0.0648,0.0643,0.0644,0.0644,0.0645,0,0,0,0,0,0,0,0.058,0.058,0.0574,0.0572,0.0574,0.0594,0.0595,0.0604,0.0612,0.06,0.0601,0.0602,0.0624,0.0631,0.0633,0.0648,0.0643,0.0644,0.0645,0.0645,0.0701,0.0702,0,0,0,0,0,0,0.057,0.0579,0.0573,0.0575,0.0576,0.0593,0.0595,0.059,0.0612,0.0614,0.0602,0.0603,0.063,0.0632,0.0634,0.0667,0.0644,0.0645,0.0646,0.07,0.0701,0.0702,0,0,0,0,0,0,0.057,0.0569,0.0572,0.0577,0.0578,0.0592,0.0587,0.059,0.0612,0.0612,0.0616,0.0621,0.063,0.0633,0.0651,0.0667,0.0646,0.0647,0.0699,0.07,0.0702,0.0716,0,0,0,0,0,0,0.057,0.0569,0.0573,0.0576,0.0577,0.0585,0.0587,0.0591,0.061,0.0612,0.063,0.0632,0.063,0.0649,0.0652,0.0668,0.0647,0.0698,0.07,0.0701,0.0714,0.0718,0.072,0,0,0,0,0,0.0571,0.057,0.0573,0.0573,0.0579,0.0585,0.0589,0.06,0.0611,0.0621,0.0632,0.0632,0.0661,0.065,0.0653,0.067,0.0697,0.0699,0.0701,0.0713,0.0717,0.072,0,0,0,0,0,0,0.0576,0.0572,0.0575,0.0574,0.0582,0.0588,0.06,0.061,0.0628,0.0634,0.0639,0.0642,0.0666,0.0667,0.0655,0.0692,0.0681,0.0683,0.0689,0.0693,0.0696,0.0698,0.0648,0,0,0,0,0,0.0579,0.0577,0.0579,0.058,0.0585,0.0597,0.0606,0.0614,0.0624,0.0634,0.065,0.0664,0.0675,0.0682,0.0694,0.0711,0.0715,0.0726,0.0729,0.0732,0.0736,0.0766,0.0772,0.0708,0.0708,0.0708,0,0,0.0582,0.0579,0.058,0.0582,0.0591,0.0599,0.0604,0.0618,0.0629,0.0633,0.0665,0.0678,0.0683,0.0703,0.0714,0.0706,0.0748,0.0734,0.0736,0.074,0.0769,0.0775,0.078,0.071,0.0709,0.0709,0,0,0.0582,0.0586,0.0586,0.0593,0.0603,0.0611,0.0618,0.0636,0.065,0.0675,0.0682,0.0705,0.0727,0.0733,0.0737,0.0764,0.0765,0.0773,0.0787,0.0815,0.0821,0.0826,0.0821,0.0825,0.0772,0.0772,0.0772,0,0.059,0.0585,0.0589,0.0593,0.06,0.0617,0.0624,0.0639,0.0665,0.068,0.0687,0.0734,0.0741,0.0758,0.0769,0.0771,0.0778,0.077,0.0819,0.0824,0.0829,0.0823,0.0827,0.0773,0.0772,0.0772,0.0772,0,0.0586,0.0591,0.0594,0.0601,0.0612,0.0621,0.0636,0.0662,0.0687,0.0702,0.074,0.0756,0.0783,0.0791,0.0787,0.0824,0.0814,0.082,0.0808,0.0836,0.0827,0.0832,0.0774,0.0774,0.0773,0.0773,0,0,0.0583,0.0589,0.0595,0.0598,0.0617,0.0623,0.0649,0.0673,0.0697,0.0731,0.0764,0.0789,0.0811,0.0817,0.0824,0.0847,0.088,0.085,0.0852,0.0841,0.0925,0.0831,0.0827,0.09,0.0902,0.0903,0.0899,0,0.0584,0.0587,0.0594,0.0608,0.061,0.0635,0.0658,0.0684,0.0714,0.0753,0.0778,0.0814,0.0814,0.0837,0.086,0.0882,0.0896,0.0879,0.0903,0.0903,0.0814,0.0831,0.0907,0.0902,0.0903,0.0904,0.0904,0,0.058,0.0581,0.059,0.0607,0.0613,0.0633,0.0674,0.0695,0.0745,0.0773,0.0813,0.0835,0.0874,0.0878,0.092,0.0912,0.0921,0.0932,0.0932,0.0845,0.0819,0.0874,0.0912,0.0912,0.0911,0.0911,0.091,0,0.0567,0.058,0.0587,0.0592,0.0616,0.0639,0.0664,0.071,0.0732,0.0795,0.0822,0.0868,0.0898,0.0928,0.0945,0.0944,0.0985,0.0983,0.0901,0.0893,0.0972,0.0967,0.1016,0.1016,0.1016,0.1016,0.1016,0,0.0554,0.0563,0.0587,0.059,0.0613,0.0636,0.0671,0.071,0.076,0.0785,0.0835,0.0855,0.0919,0.0942,0.0955,0.0931,0.0992,0.0901,0.0891,0.0975,0.0971,0.0974,0.0969,0.1016,0.1016,0.1016,0.1016,0,0.0534,0.055,0.0557,0.0589,0.0606,0.0625,0.0673,0.0693,0.075,0.0787,0.0811,0.0862,0.0888,0.0922,0.0966,0.0929,0.093,0.0907,0.0975,0.097,0.0812,0.0808,0.0807,0.0804,0.0801,0.0799,0.0797,0,0.052,0.052,0.0555,0.0564,0.0583,0.0615,0.0636,0.0693,0.0707,0.0773,0.0781,0.0828,0.0853,0.083,0.0874,0.0876,0.0869,0.0849,0.0844,0.0803,0.0794,0.0794,0.0794,0.0793,0.0792,0.0791,0.0791,0,0.0489,0.0508,0.0517,0.0534,0.0558,0.0571,0.0605,0.061,0.0667,0.0727,0.0735,0.0743,0.0759,0.0776,0.0783,0.0787,0.0853,0.082,0.0826,0.0821,0.0785,0.0779,0.0782,0.0781,0.0783,0.0784,0.0784,0,0.0469,0.0473,0.0486,0.0494,0.0519,0.0515,0.0537,0.0548,0.0572,0.0648,0.0647,0.0697,0.0754,0.0728,0.0735,0.0728,0.0713,0.0681,0.0694,0.0705,0.0672,0.0611,0.0544,0,0,0,0,0,0.0445,0.0439,0.0441,0.0443,0.0461,0.0472,0.0506,0.0525,0.0582,0.0571,0.0609,0.0623,0.0626,0.0644,0.0616,0.0674,0.071,0.0634,0.0679,0.0729,0.074,0.071,0,0,0,0,0,0,0.0428,0.0429,0.0423,0.0391,0.0383,0.0393,0.0412,0.0449,0.044,0.0508,0.0517,0.0569,0.0586,0.0645,0.0603,0.0608,0.0615,0.0668,0.0665,0.0723,0.0733,0.0741,0.0715,0,0,0,0,0]},{"header":{"parameterUnit":"m.s-1","parameterCategory":2,"la1":30.2991,"la2":30.254,"lo1":-89.0895,"lo2":-89.0444,"dy":0.0017,"dx":0.0017,"nx":28,"ny":28,"refTime":"2025-01-31T09:00:00:Z","depth":"4","parameterNumber":3,"parameterNumberName":"V-component_of_CURRENTS"},"data":[0,0,0,0,0,0,0,0,0,0,0,0,0,0,0,0,0,0,0,0,0,0,0,0,0,0,0,0,0,0,0,0,0,0,0,0,0,0,0,0,0,0,0,0,0,0,0,0,0,0,0,0,0,0,0,0,0,0,0.024,0.024,0,0.0259,0.026,0.026,0.0274,0.0275,0.0275,0.0275,0.0296,0.0297,0.0297,0,0,0,0,0,0,0,0,0,0,0,0,0,0.0204,0.0205,0.024,0.024,0.024,0.0259,0.026,0.026,0.0274,0.0275,0.0275,0.0275,0.0296,0.0297,0.0297,0,0,0,0,0,0,0,0,0,0,0,0,0,0.0221,0.0205,0.024,0.025,0.0251,0.0259,0.026,0.026,0.0274,0.0275,0.0275,0.0275,0.0296,0.0297,0.0297,0.0298,0,0,0.03,0.03,0,0,0,0,0,0,0,0,0.022,0.0223,0.0248,0.0249,0.025,0.0264,0.0255,0.0273,0.0274,0.0265,0.0275,0.0275,0.0286,0.0287,0.0291,0.0299,0.03,0.03,0.03,0.03,0.0301,0,0,0,0,0,0,0,0.0219,0.0222,0.0248,0.0248,0.0249,0.0249,0.0252,0.0258,0.0275,0.0266,0.0267,0.0269,0.0286,0.029,0.0291,0.0301,0.03,0.03,0.0301,0.0301,0.0318,0.0318,0,0,0,0,0,0,0.0217,0.0221,0.0247,0.0248,0.0235,0.025,0.0253,0.026,0.0274,0.0277,0.0269,0.027,0.0289,0.0291,0.0292,0.0307,0.03,0.0301,0.0301,0.0318,0.0318,0.0318,0,0,0,0,0,0,0.0216,0.0219,0.0246,0.0234,0.0238,0.025,0.0258,0.026,0.0268,0.0277,0.0279,0.0275,0.0289,0.0291,0.0304,0.0308,0.0301,0.0302,0.0318,0.0318,0.0318,0.0329,0,0,0,0,0,0,0.0215,0.0219,0.0224,0.0235,0.0238,0.0255,0.0258,0.026,0.0268,0.027,0.0282,0.0284,0.0289,0.0303,0.0304,0.0309,0.0303,0.0318,0.0318,0.0318,0.0329,0.0329,0.033,0,0,0,0,0,0.0214,0.022,0.0224,0.0227,0.0245,0.0255,0.0257,0.0266,0.0268,0.0273,0.0283,0.0284,0.0304,0.0303,0.0305,0.031,0.0318,0.0318,0.0318,0.0328,0.0329,0.033,0,0,0,0,0,0,0.0206,0.0222,0.0227,0.0238,0.0247,0.0257,0.0263,0.0267,0.0278,0.0282,0.0288,0.0291,0.0302,0.0303,0.0302,0.0314,0.0309,0.031,0.0316,0.0317,0.0318,0.0319,0.0303,0,0,0,0,0,0.0206,0.0218,0.0229,0.0238,0.0243,0.0253,0.0259,0.0265,0.0275,0.0281,0.0289,0.0296,0.0303,0.0308,0.0315,0.0323,0.0316,0.0325,0.0326,0.0326,0.0328,0.0321,0.0322,0.0318,0.0318,0.0318,0,0,0.0205,0.0216,0.0222,0.0238,0.0246,0.0257,0.0257,0.0268,0.0277,0.0281,0.0297,0.0301,0.0306,0.0316,0.032,0.0319,0.0323,0.0327,0.0327,0.0328,0.0321,0.0322,0.0322,0.0318,0.0318,0.0318,0,0,0.0207,0.0219,0.0229,0.0239,0.0253,0.0261,0.0264,0.0277,0.0283,0.0297,0.0301,0.0307,0.0319,0.0324,0.0327,0.0334,0.0327,0.0334,0.0341,0.0334,0.0334,0.0335,0.0322,0.0321,0.0335,0.0335,0.0335,0,0.0205,0.0222,0.0231,0.0244,0.0255,0.0263,0.0274,0.0282,0.0297,0.0304,0.0304,0.0319,0.0323,0.0333,0.0336,0.0337,0.0329,0.0338,0.0335,0.0335,0.0335,0.0323,0.0321,0.0335,0.0335,0.0335,0.0335,0,0.0215,0.023,0.0237,0.0259,0.0269,0.0281,0.0293,0.0303,0.0311,0.0318,0.033,0.0333,0.0342,0.0341,0.0343,0.0345,0.0338,0.0337,0.0334,0.0337,0.0323,0.0321,0.0336,0.0336,0.0336,0.0335,0,0,0.0207,0.0239,0.0242,0.0257,0.0279,0.0289,0.0305,0.0321,0.0335,0.034,0.0351,0.0358,0.0358,0.0361,0.0359,0.0353,0.0345,0.0346,0.0345,0.0335,0.0325,0.0321,0.0319,0.0343,0.0343,0.0343,0.0314,0,0.0214,0.024,0.0255,0.028,0.0294,0.031,0.0325,0.0341,0.0352,0.0364,0.0361,0.0373,0.0365,0.0371,0.0363,0.0354,0.0342,0.0353,0.0323,0.0322,0.032,0.0318,0.0343,0.0313,0.0312,0.0312,0.0312,0,0.0219,0.0238,0.0264,0.0297,0.0305,0.0321,0.035,0.0367,0.0383,0.0391,0.0396,0.0395,0.0392,0.0381,0.036,0.0367,0.0346,0.0333,0.0331,0.0324,0.0316,0.031,0.0309,0.0309,0.031,0.031,0.031,0,0.021,0.0245,0.0267,0.028,0.0316,0.0331,0.0352,0.0376,0.0397,0.0411,0.0422,0.0414,0.0415,0.0389,0.0364,0.0362,0.0333,0.0327,0.03,0.0299,0.0306,0.0306,0.0303,0.0303,0.0303,0.0304,0.0304,0,0.0212,0.023,0.0268,0.0282,0.0312,0.0336,0.0371,0.0389,0.0417,0.0444,0.0438,0.0447,0.0418,0.0399,0.0367,0.0331,0.0335,0.03,0.0292,0.031,0.0311,0.0305,0.0305,0.0302,0.0303,0.0303,0.0303,0,0.0199,0.0225,0.0254,0.0295,0.0311,0.0334,0.0388,0.0414,0.0439,0.0471,0.0477,0.0473,0.0453,0.0417,0.0375,0.0341,0.0304,0.0288,0.0307,0.0302,0.0271,0.0272,0.0253,0.0252,0.0252,0.0252,0.0252,0,0.0195,0.021,0.026,0.0283,0.0305,0.0346,0.0378,0.042,0.0451,0.0488,0.0499,0.0491,0.0481,0.0413,0.0376,0.0312,0.03,0.0272,0.0271,0.0272,0.0266,0.0268,0.027,0.0251,0.0251,0.0251,0.0251,0,0.0186,0.0206,0.0233,0.028,0.0318,0.0363,0.0411,0.0433,0.0485,0.0505,0.0515,0.0489,0.0463,0.0412,0.0365,0.0319,0.0287,0.0268,0.0269,0.0268,0.0269,0.0265,0.0267,0.025,0.025,0.025,0.025,0,0.0178,0.0194,0.0233,0.0276,0.0323,0.037,0.0398,0.0438,0.0472,0.0514,0.0513,0.0492,0.0483,0.0416,0.0373,0.0329,0.0314,0.0285,0.0284,0.0285,0.0304,0.0312,0.0299,0,0,0,0,0,0.0171,0.0191,0.0227,0.0278,0.0327,0.0359,0.0417,0.0446,0.0491,0.0498,0.051,0.0488,0.0433,0.0408,0.0363,0.0362,0.0303,0.0306,0.0269,0.0244,0.0246,0.0263,0,0,0,0,0,0,0.0166,0.0196,0.0219,0.0274,0.0309,0.0367,0.0407,0.044,0.0447,0.0479,0.0449,0.0457,0.0403,0.0454,0.0354,0.0344,0.0309,0.0289,0.0288,0.0244,0.0245,0.0246,0.0264,0,0,0,0,0]}]]